Terug naar catalogus

SL-16 DEB

ActiefLEO
NORAD 26074·DEBRIS·🇷🇺 Russia

Gelanceerd Feb 3, 2000 vanaf Baikonur Cosmodrome

Loading…

Volgende Passages (komende 24 uur)

TLE

VersSource: Space-Track

Epoch: Sep 13, 2026, 23:25 UTC

1 26074U 00006D   26256.97631312  .00000047  00000-0  86050-4 0  9992
2 26074  70.9619  85.7555 0211647 128.8409 233.1793 13.70146786371003

Volg SL-16 DEB in realtime met AllMySat

Download on the App Store